Probability
0 0 0 0 0 0 0 0 0 0 0 0 0 0 0 0 1 2 2 1 1 3 6 7 8 9 8 6 4 1 0 0 0 0 0 0 0 0 0 0 0 0 0 0
0 0 0 0 0 0 0 0 0 0 0 0 0 0 0 0 0 1 1 0 0 1 4 6 7 8 7 4 3 1 0 0 0 0 0 0 0 0 0 0 0 0 0 0
0 0 0 0 0 0 0 0 0 0 0 0 0 0 0 0 0 0 0 0 0 0 2 4 6 6 5 2 1 0 0 0 0 0 0 0 0 0 0 0 0 0 0 0
0 0 0 0 0 0 0 0 0 0 0 0 0 0 0 0 0 0 0 0 0 0 1 2 3 4 3 1 0 0 0 0 0 0 0 0 0 0 0 0 0 0 0 0
0 0 0 0 0 0 0 0 0 0 0 0 0 0 0 0 0 0 0 0 0 0 0 1 2 2 2 1 0 0 0 0 0 0 0 0 0 0 0 0 0 0 0 0
0 0 0 0 0 0 0 0 0 0 0 0 0 0 0 0 0 0 0 0 0 0 0 0 1 1 1 0 0 0 0 0 0 0 0 0 0 0 0 0 0 0 0 0
0 0 0 0 0 0 0 0 0 0 0 0 0 0 0 0 0 0 0 0 0 0 0 0 0 0 0 0 0 0 0 0 0 0 0 0 0 0 0 0 0 0 0 0
0 0 0 0 0 0 0 0 0 0 0 0 0 0 0 0 0 0 0 0 0 0 0 0 0 0 0 0 0 0 0 0 0 0 0 0 0 0 0 0 0 0 0 0
0 0 0 0 0 0 0 0 0 0 0 0 0 0 0 0 0 0 0 0 0 0 0 0 0 0 0 0 0 0 0 0 0 0 0 0 0 0 0 0 0 0 0 0
0 0 0 0 0 0 0 0 0 0 0 0 0 0 0 0 0 0 0 0 0 0 0 0 0 0 0 0 0 0 0 0 0 0 0 0 0 0 0 0 0 0 0 0
0 0 0 0 0 0 0 0 0 0 0 0 0 0 0 0 0 0 0 0 0 0 0 0 0 0 0 0 0 0 0 0 0 0 0 0 0 0 0 0 0 0 0 0
0 0 0 0 0 0 0 0 0 0 0 0 0 0 0 0 0 0 0 0 0 0 0 0 0 0 0 0 1 1 0 0 0 0 0 0 0 0 0 0 0 0 0 0
0 0 0 0 0 0 0 0 0 0 0 0 0 0 0 0 0 0 0 0 0 0 0 0 0 0 0 1 2 2 1 0 0 0 0 0 0 0 0 0 0 0 0 0
0 0 0 0 0 0 0 0 0 0 0 0 0 0 0 0 0 0 0 0 0 0 0 0 0 0 0 1 3 3 2 0 1 2 1 1 0 0 0 0 0 0 0 0
0 0 0 0 0 0 0 0 0 0 0 0 0 0 0 0 0 0 0 0 0 0 0 0 0 0 0 1 2 3 2 1 2 3 3 2 1 0 0 0 0 0 0 0
0 0 0 0 0 0 0 0 0 0 0 0 0 0 0 0 0 0 0 0 0 0 0 0 0 0 0 0 1 2 2 2 3 4 3 2 1 0 0 0 0 0 0 0
0 0 0 0 0 0 0 0 0 0 0 0 0 0 0 0 0 0 0 0 0 0 0 0 0 0 0 0 0 1 1 2 3 3 2 1 0 0 0 0 0 0 0 0
0 0 0 0 0 0 0 0 0 0 0 0 0 0 0 0 0 0 0 0 0 0 0 0 0 0 0 0 0 0 0 1 1 1 0 0 0 0 0 0 0 0 0 0
0 0 0 0 0 0 0 0 0 0 0 0 0 0 0 0 0 0 0 0 0 0 0 0 0 0 0 0 0 0 0 0 0 0 0 0 0 0 0 0 0 0 0 0
0 0 0 0 0 0 0 0 0 0 0 0 0 0 0 0 0 0 0 0 0 0 0 0 0 0 0 0 0 0 0 0 0 0 0 0 0 0 0 0 0 0 0 0
0 0 0 0 0 0 0 0 0 0 0 0 0 0 0 0 0 0 0 0 0 0 0 0 0 0 0 0 0 0 0 0 0 0 0 0 0 0 0 0 0 0 0 0
0 0 0 0 0 0 0 0 0 0 0 0 0 0 0 0 0 0 0 0 0 0 0 0 0 0 0 0 0 0 0 0 0 0 0 0 0 0 0 0 0 0 0 0
0 0 0 0 0 0 0 0 0 0 0 0 0 0 0 0 0 0 0 0 0 0 0 0 0 0 0 0 0 0 0 0 0 0 0 0 0 0 0 0 0 0 0 0
0 0 0 0 0 0 0 0 0 0 0 0 0 0 0 0 0 0 0 0 0 0 0 0 0 0 0 0 0 0 0 0 0 0 0 0 0 0 0 0 0 0 0 0
0 0 0 0 0 0 0 0 0 0 0 0 0 0 0 0 0 0 0 0 0 0 0 0 0 0 0 0 0 0 0 0 0 0 0 0 0 0 0 0 0 0 0 0
0 0 0 0 0 0 0 0 0 0 0 0 0 0 0 0 0 0 0 0 0 0 0 0 0 0 0 0 0 0 0 0 0 0 0 0 0 0 0 0 0 0 0 0
Wind_Speed
1 2 4 8 9 7 4 3 5 3 0 2 1 2 2 2 2 3 3 4 5 5 5 5 6 6 6 5 6 6 7 6 5 4 3 3 2 1 1 1 1 2 2 3
3 5 8 5 4 4 4 3 4 1 2 2 1 2 2 3 3 4 5 6 6 5 6 6 6 6 7 7 7 6 7 7 6 4 3 3 3 2 1 1 1 1 2 2
6 8 3 2 2 1 3 4 3 2 2 4 2 3 1 2 2 2 4 5 5 7 8 8 8 7 7 7 8 8 7 7 6 5 4 3 3 2 1 1 1 1 2 2
7 6 2 2 3 3 3 2 3 4 3 3 3 3 4 2 2 4 5 5 6 5 6 7 8 8 9 9 7 7 6 6 5 6 5 5 4 3 4 2 2 2 2 2
6 3 2 4 4 3 2 4 5 4 4 2 3 1 6 0 3 6 7 8 7 7 8 8 9 10 9 8 7 6 6 5 5 5 6 5 3 3 2 1 2 2 1 2
7 4 3 3 2 4 6 6 6 5 5 3 2 0 6 4 6 5 7 8 8 8 8 7 7 7 7 7 6 6 6 6 5 6 6 6 6 5 4 3 3 2 1 2
5 4 2 3 4 2 4 6 5 6 5 4 2 1 8 6 6 7 9 10 9 9 9 8 8 8 8 8 8 7 8 7 6 6 6 7 7 7 6 5 5 4 3 3
2 6 3 3 5 6 3 6 6 3 4 5 2 4 8 5 3 4 6 7 8 8 9 10 10 10 10 10 9 8 9 8 7 8 7 6 6 5 4 5 5 5 4 4
6 6 2 1 2 8 5 3 4 6 2 2 5 6 8 1 2 4 5 7 9 10 10 10 10 10 10 10 10 10 10 9 8 9 8 7 7 7 6 6 5 4 4 3
7 4 3 2 3 3 5 8 5 5 3 2 5 4 5 4 4 5 6 8 9 9 9 10 9 10 10 10 9 8 9 10 9 9 9 8 8 8 7 5 6 6 5 4
4 4 3 2 1 2 4 4 5 4 4 5 2 7 5 6 5 7 8 9 9 10 11 11 11 10 10 9 8 9 9 9 9 10 9 8 8 8 7 7 7 6 5 6
3 5 1 3 2 1 2 5 7 4 3 4 3 9 4 3 4 5 6 7 7 9 10 10 10 8 8 9 10 10 10 10 11 10 9 9 8 8 8 8 8 7 7 6
6 6 3 6 6 2 1 3 4 5 5 4 4 8 3 4 3 2 4 5 6 7 7 7 7 8 9 10 10 11 11 12 10 9 10 9 9 9 10 10 8 8 8 7
7 5 6 7 7 4 2 3 5 6 4 5 7 7 7 8 7 5 3 3 3 4 5 6 7 7 8 8 9 9 10 9 9 9 10 10 11 11 10 9 9 9 8 8
5 4 4 5 4 2 3 3 5 6 7 8 7 5 4 5 5 5 4 2 1 1 2 4 6 6 6 6 7 8 8 8 8 9 10 11 10 8 8 8 8 8 8 10
4 4 2 2 1 3 2 2 3 4 3 4 3 3 1 2 3 6 7 7 6 4 3 2 2 2 3 5 6 6 6 6 7 8 10 8 7 7 8 9 8 8 9 8
4 6 4 3 2 2 4 5 4 4 3 5 5 4 1 3 8 8 8 8 8 8 6 5 3 2 2 2 3 4 4 4 6 7 6 5 6 7 8 7 7 8 9 8
7 6 4 2 2 5 7 2 3 3 2 2 2 3 3 5 5 6 7 8 10 10 9 9 6 5 4 4 3 2 3 3 3 2 2 2 3 5 4 5 7 8 6 7
4 7 5 4 3 5 5 2 4 4 2 2 4 4 4 5 5 8 9 8 9 9 8 8 8 7 7 8 6 6 6 4 3 0 1 2 3 4 4 6 7 6 5 7
5 5 6 4 3 6 6 2 3 3 3 3 5 5 3 2 4 2 5 6 9 9 8 9 9 11 12 10 7 8 7 6 4 3 2 2 1 2 4 5 5 4 5 6
3 4 4 4 4 7 3 2 5 4 7 2 5 4 2 3 4 4 3 6 8 8 8 8 9 10 9 8 8 10 8 7 4 3 4 4 3 2 2 3 2 3 3 4
6 5 4 4 3 7 1 4 6 5 0 3 5 5 7 9 8 7 6 6 7 8 8 8 8 8 7 7 8 9 7 5 5 5 5 5 4 4 3 2 2 2 3 4
5 7 6 8 7 3 1 2 2 3 3 3 5 8 11 10 8 6 6 6 6 6 6 5 6 6 7 7 7 7 5 5 5 6 6 5 5 4 4 3 3 3 3 3
3 2 3 3 4 2 1 1 1 3 4 7 9 10 10 10 8 7 5 4 4 4 4 4 5 6 5 6 5 4 4 4 5 6 5 5 5 5 4 3 3 3 4 4
5 5 3 3 2 2 1 2 4 7 9 11 11 9 9 10 8 6 4 3 3 2 2 3 3 3 3 4 4 4 4 4 5 4 4 4 4 4 4 4 3 4 4 5
4 7 8 7 6 6 4 3 7 11 10 11 11 8 6 7 7 6 4 2 2 2 2 2 2 2 2 3 4 4 3 3 3 3 4 3 4 4 4 4 6 6 7 11
Wind_Direction
48 49 249 235 213 221 234 243 268 277 101 130 205 248 233 198 210 198 183 186 191 180 158 154 158 161 154 158 158 162 151 149 140 132 135 134 154 161 160 175 152 134 120 108
4 270 245 240 225 215 220 248 266 323 45 83 9 297 249 206 217 208 196 198 203 175 160 162 167 170 172 178 176 169 164 163 164 153 145 144 140 151 162 160 158 171 149 141
225 253 286 312 301 229 227 206 226 191 69 44 21 340 285 249 224 213 206 197 196 184 172 171 178 182 180 186 186 181 179 172 167 150 121 98 82 72 86 164 208 211 183 167
239 262 278 294 265 190 268 252 154 114 88 350 20 313 293 250 238 221 210 202 202 194 180 180 184 186 192 195 189 182 179 174 169 160 157 153 159 175 199 193 198 203 192 185
256 254 289 278 259 175 151 67 82 87 100 33 16 3 294 290 237 233 215 207 206 198 194 195 192 192 195 190 184 183 178 181 176 172 170 160 163 175 162 161 190 204 214 210
251 252 227 226 40 108 122 77 59 53 63 9 320 56 287 241 220 214 207 203 200 195 194 195 189 184 191 188 183 180 183 195 185 179 175 176 176 172 167 185 198 207 217 228
301 292 233 132 94 48 84 83 26 0 8 274 275 247 256 250 224 199 194 197 195 192 191 192 190 191 195 194 192 187 190 202 192 187 189 189 186 181 188 193 198 197 205 216
254 290 255 182 168 171 168 137 154 209 240 286 317 259 258 261 237 196 186 184 188 194 194 197 200 200 201 200 198 193 197 205 194 195 199 193 187 186 197 199 194 199 205 214
193 246 278 176 156 139 139 156 153 128 138 315 294 288 301 256 195 186 185 183 194 201 201 203 202 202 204 204 203 199 200 205 201 201 196 194 193 194 201 202 200 204 211 214
171 224 295 314 89 63 126 138 100 112 138 279 304 290 266 257 216 198 195 202 207 202 205 209 208 206 207 208 207 200 201 207 205 199 199 201 198 200 198 192 201 207 210 209
144 165 307 5 103 152 109 96 101 108 144 155 260 278 243 236 220 207 209 208 206 202 205 209 211 210 208 206 203 202 204 206 203 202 201 199 198 196 193 199 208 205 205 203
139 123 231 279 279 164 156 161 148 150 202 168 181 267 291 264 249 223 225 224 217 211 209 210 210 204 202 205 205 206 205 206 208 202 197 201 197 191 197 208 211 204 206 208
141 116 69 350 344 3 118 142 136 122 116 151 177 261 310 355 339 281 239 237 229 223 219 215 208 204 207 208 208 209 207 209 205 192 194 198 198 198 206 211 209 205 207 211
122 121 158 192 218 212 221 181 149 132 150 197 221 253 315 343 340 336 316 280 251 231 221 217 218 217 215 211 209 210 212 206 196 190 195 203 206 207 210 210 207 208 208 211
118 154 205 233 235 192 220 221 176 182 190 191 226 229 285 316 319 330 340 340 5 324 258 228 223 222 219 216 213 211 211 199 189 189 201 212 211 207 207 209 211 211 212 218
115 147 159 279 253 200 234 243 193 198 195 202 210 236 279 326 17 25 21 31 32 12 350 327 278 250 233 223 220 214 212 198 182 193 209 213 203 203 211 215 213 214 218 219
130 130 133 245 319 59 259 235 199 202 212 189 201 205 140 58 44 30 23 38 40 22 10 10 0 335 295 256 214 205 199 165 173 199 212 207 202 210 216 215 214 220 222 220
130 121 132 152 102 227 249 276 176 165 215 210 164 139 130 118 92 51 38 46 48 36 25 25 22 18 15 16 29 59 90 119 159 207 237 237 227 235 233 222 227 230 226 225
123 129 120 127 181 267 284 208 153 149 249 199 160 156 158 157 95 42 24 42 52 43 32 29 30 33 34 34 41 66 64 67 68 2 262 239 217 225 227 234 241 236 229 235
60 89 112 129 168 236 252 182 142 107 276 207 168 177 186 127 84 39 3 35 51 46 40 38 38 42 40 29 41 61 58 56 39 359 334 318 258 234 235 239 242 237 232 243
72 64 111 153 211 259 256 138 122 171 242 185 158 161 138 109 128 130 68 52 53 50 45 43 47 47 36 28 49 56 49 38 12 15 25 21 2 305 274 269 261 258 251 256
159 147 165 145 197 257 201 146 179 211 195 115 117 116 111 105 101 93 78 65 59 54 46 46 53 45 29 30 52 54 36 6 9 27 31 22 11 2 360 351 329 304 279 273
186 184 180 184 208 240 217 198 197 154 131 122 118 116 117 110 103 93 79 69 60 56 48 43 56 49 29 24 44 50 11 2 19 28 21 10 5 3 1 356 336 323 306 291
233 142 142 225 260 237 227 203 114 129 124 116 115 114 114 111 109 98 86 75 65 53 47 43 54 51 27 12 25 26 1 10 31 28 12 2 0 354 351 346 332 320 311 304
199 158 165 235 239 119 58 141 124 107 107 108 104 105 114 114 112 111 105 96 90 79 57 58 64 55 16 360 5 1 4 21 28 18 4 355 351 344 338 333 319 311 295 291
191 177 177 215 203 164 165 141 123 114 112 113 109 99 100 111 117 113 108 108 102 87 68 59 43 18 339 340 339 336 344 11 18 357 344 337 331 328 326 322 319 300 288 293